Location: Vaughan
(31.9146°N, 97.1736°W)
Time: 10:13:30
(UTC+00:00)

Cosmos 1814 Rocket - Pass Details

Date: 10 December 2025
Orbit: 740 x 783 km, 74.1° (Epoch: 21 January)

Event Time Altitude Azimuth Distance (km) Brightness Sun altitude
Rises 11:44:21 0° 190° (S) 3,188 7.3 -19.4°
Reaches altitude 10° 11:46:41 10° 188° (S) 2,273 6.5 -19.0°
Maximum altitude 11:51:50 73° 104° (ESE) 798 4.2 -17.9°
Drops below altitude 10° 11:57:04 10° 21° (NNE) 2,315 6.5 -16.8°
Sets 11:59:28 0° 19° (NNE) 3,251 7.3 -16.4°
